Date String (YYYY-MM-DD hh:mm:ss) UTC,Instrument flags,Ambient pressure (hPa),Sample flow (lpm),Bypass flow (lpm),Sample temperature (°C),Ambient temperature (°C),ASC tube jacket temperature (°C),LED temperature (°C),Box temperature (°C),Sample RH (%),Span deviation,Mass concentration (μg/m³),Mass concentration (μg/m³),Mass concentration (μg/m³)
DateTimeUTC,F1_M11,P_M11,Q1_M11,Q2_M11,T1_M11,T2_M11,T3_M11,T4_M11,T5_M11,U1_M11,ZSPAN_M11,X0_M11,X2_M11,X1_M11
2022-02-02 12:00:00,,0824.5,5.00,0.00,21.9,21.0,00.0,31.0,23.5,06.6,0000.0,0002.13,0001.09,0000.78
2022-02-02 12:01:00,,0824.5,4.99,0.00,21.9,21.0,00.0,31.0,23.4,06.6,0000.0,0002.23,0001.12,0000.79
2022-02-02 12:02:00,,0824.5,5.00,0.00,21.9,21.6,00.0,31.0,23.6,06.6,0000.0,0002.32,0001.15,0000.80
2022-02-02 12:03:00,,0824.5,5.01,0.00,22.0,22.4,00.0,31.0,23.8,06.5,0000.0,0002.29,0001.17,0000.80
2022-02-02 12:04:00,,0824.5,5.01,0.00,22.2,23.1,00.0,31.1,24.1,06.5,0000.0,0002.13,0001.14,0000.81
2022-02-02 12:05:00,,0824.5,4.99,0.00,22.3,23.1,00.0,31.1,24.2,06.4,0000.0,0002.07,0001.14,0000.82
2022-02-02 12:06:00,,0824.5,5.00,0.00,22.3,22.7,00.0,31.1,24.1,06.4,0000.0,0002.64,0001.14,0000.82
2022-02-02 12:07:00,,0824.5,5.00,0.00,22.3,22.4,00.0,31.1,24.1,06.4,0000.0,0002.75,0001.13,0000.83
2022-02-02 12:08:00,,0824.4,5.01,0.00,22.2,22.0,00.0,31.1,24.0,06.4,0000.0,0003.02,0001.17,0000.83
2022-02-02 12:09:00,,0824.5,5.00,0.00,22.2,21.9,00.0,31.1,23.9,06.4,0000.0,0003.07,0001.19,0000.83
2022-02-02 12:10:00,,0824.5,4.99,0.00,22.2,21.7,00.0,31.1,23.8,06.4,0000.0,0003.02,0001.17,0000.82
2022-02-02 12:11:00,,0824.5,5.01,0.00,22.1,21.6,00.0,31.1,23.8,06.4,0000.0,0003.04,0001.20,0000.84
2022-02-02 12:12:00,,0824.5,4.98,0.00,22.1,21.4,00.0,31.1,23.7,06.4,0000.0,0003.00,0001.20,0000.85
2022-02-02 12:13:00,,0824.5,5.01,0.00,22.1,21.3,00.0,31.1,23.7,06.4,0000.0,0002.97,0001.18,0000.85
2022-02-02 12:14:00,,0824.5,4.99,0.00,22.0,21.2,00.0,31.1,23.6,06.5,0000.0,0003.01,0001.19,0000.85
2022-02-02 12:15:00,,0824.5,5.01,0.00,22.0,21.3,00.0,31.1,23.6,06.5,0000.0,0003.03,0001.21,0000.85
2022-02-02 12:16:00,,0824.5,4.99,0.00,22.0,21.9,00.0,31.1,23.7,06.4,0000.0,0003.07,0001.22,0000.85
2022-02-02 12:17:00,,0824.5,5.00,0.00,22.2,22.6,00.0,31.1,24.0,06.4,0000.0,0002.53,0001.21,0000.84
2022-02-02 12:18:00,,0824.6,5.00,0.00,22.3,23.0,00.0,31.2,24.2,06.4,0000.0,0002.33,0001.23,0000.85
2022-02-02 12:19:00,,0824.6,5.00,0.00,22.3,22.7,00.0,31.2,24.2,06.3,0000.0,0001.96,0001.18,0000.84
2022-02-02 12:20:00,,0824.6,5.00,0.00,22.3,22.4,00.0,31.2,24.0,06.4,0000.0,0001.95,0001.18,0000.84
2022-02-02 12:21:00,,0824.6,5.00,0.00,22.2,22.1,00.0,31.2,23.9,06.4,0000.0,0002.01,0001.20,0000.85
2022-02-02 12:22:00,,0824.6,5.01,0.00,22.2,21.8,00.0,31.2,23.8,06.4,0000.0,0002.10,0001.20,0000.84
2022-02-02 12:23:00,,0824.6,4.99,0.00,22.1,21.6,00.0,31.1,23.7,06.4,0000.0,0002.07,0001.18,0000.84
2022-02-02 12:24:00,,0824.6,4.98,0.00,22.1,21.4,00.0,31.1,23.6,06.4,0000.0,0002.27,0001.21,0000.83
2022-02-02 12:25:00,,0824.6,5.00,0.00,22.0,21.2,00.0,31.1,23.5,06.4,0000.0,0002.50,0001.24,0000.82
2022-02-02 12:26:00,,0824.6,4.99,0.00,21.9,21.3,00.0,31.1,23.5,06.4,0000.0,0003.02,0001.27,0000.83
2022-02-02 12:27:00,,0824.8,5.00,0.00,22.0,22.1,00.0,31.1,23.7,06.4,0000.0,0003.32,0001.29,0000.83
2022-02-02 12:28:00,,0824.6,5.01,0.00,22.2,22.8,00.0,31.1,24.0,06.4,0000.0,0003.23,0001.28,0000.84
2022-02-02 12:29:00,,0824.6,4.99,0.00,22.3,22.9,00.0,31.2,24.1,06.3,0000.0,0003.14,0001.26,0000.84
2022-02-02 12:30:00,,0824.7,5.01,0.00,22.3,22.5,00.0,31.2,24.1,06.3,0000.0,0003.23,0001.30,0000.84
2022-02-02 12:31:00,,0824.6,5.00,0.00,22.2,22.2,00.0,31.2,24.0,06.3,0000.0,0003.19,0001.29,0000.84
2022-02-02 12:32:00,,0824.6,4.99,0.00,22.2,21.9,00.0,31.2,23.8,06.4,0000.0,0003.26,0001.30,0000.84
2022-02-02 12:33:00,,0824.6,5.01,0.00,22.1,21.6,00.0,31.1,23.7,06.4,0000.0,0003.25,0001.31,0000.85
2022-02-02 12:34:00,,0824.6,4.98,0.00,22.0,21.3,00.0,31.1,23.6,06.4,0000.0,0003.31,0001.34,0000.85
2022-02-02 12:35:00,,0824.6,5.00,0.00,22.0,21.2,00.0,31.1,23.5,06.4,0000.0,0003.25,0001.37,0000.87
2022-02-02 12:36:00,,0824.6,5.01,0.00,21.9,21.1,00.0,31.1,23.4,06.4,0000.0,0003.07,0001.37,0000.89
2022-02-02 12:37:00,,0824.6,4.99,0.00,21.9,21.5,00.0,31.1,23.5,06.4,0000.0,0003.85,0001.37,0000.90
2022-02-02 12:38:00,,0824.6,5.00,0.00,22.0,22.3,00.0,31.1,23.8,06.4,0000.0,0003.61,0001.38,0000.91
2022-02-02 12:39:00,,0824.6,5.01,0.00,22.2,23.0,00.0,31.1,24.1,06.4,0000.0,0003.78,0001.44,0000.92
2022-02-02 12:40:00,,0824.6,4.99,0.00,22.3,23.2,00.0,31.2,24.2,06.3,0000.0,0003.91,0001.49,0000.94
2022-02-02 12:41:00,,0824.6,5.00,0.00,22.3,22.9,00.0,31.2,24.2,06.3,0000.0,0003.90,0001.48,0000.94
2022-02-02 12:42:00,,0824.6,5.00,0.00,22.3,22.6,00.0,31.2,24.1,06.3,0000.0,0004.67,0001.50,0000.94
2022-02-02 12:43:00,,0824.6,5.01,0.00,22.3,22.2,00.0,31.2,24.0,06.3,0000.0,0005.27,0001.51,0000.95
2022-02-02 12:44:00,,0824.6,4.99,0.00,22.2,22.0,00.0,31.2,23.9,06.3,0000.0,0005.27,0001.52,0000.95
2022-02-02 12:45:00,,0824.6,5.00,0.00,22.2,21.8,00.0,31.2,23.8,06.3,0000.0,0005.26,0001.51,0000.95
2022-02-02 12:46:00,,0824.6,5.01,0.00,22.1,21.6,00.0,31.2,23.8,06.3,0000.0,0005.16,0001.47,0000.95
2022-02-02 12:47:00,,0824.6,4.99,0.00,22.1,21.4,00.0,31.1,23.7,06.3,0000.0,0005.83,0001.43,0000.93
2022-02-02 12:48:00,,0824.6,5.01,0.00,22.0,21.3,00.0,31.1,23.6,06.4,0000.0,0005.26,0001.42,0000.92
2022-02-02 12:49:00,,0824.6,4.99,0.00,22.0,21.5,00.0,31.1,23.6,06.3,0000.0,0005.22,0001.43,0000.91
2022-02-02 12:50:00,,0824.7,5.00,0.00,22.1,22.2,00.0,31.2,23.9,06.3,0000.0,0005.51,0001.40,0000.91
2022-02-02 12:51:00,,0824.8,5.00,0.00,22.3,23.0,00.0,31.2,24.1,06.3,0000.0,0005.69,0001.33,0000.89
2022-02-02 12:52:00,,0824.7,5.00,0.00,22.4,22.9,00.0,31.2,24.2,06.2,0000.0,0005.65,0001.31,0000.89
2022-02-02 12:53:00,,0824.7,5.00,0.00,22.4,22.6,00.0,31.2,24.1,06.2,0000.0,0005.22,0001.35,0000.89
2022-02-02 12:54:00,,0824.7,5.00,0.00,22.3,22.2,00.0,31.2,24.0,06.2,0000.0,0004.91,0001.37,0000.88
2022-02-02 12:55:00,,0824.7,4.99,0.00,22.2,21.9,00.0,31.2,23.8,06.3,0000.0,0005.42,0001.37,0000.88
2022-02-02 12:56:00,,0824.8,5.01,0.00,22.2,21.7,00.0,31.2,23.7,06.3,0000.0,0005.47,0001.38,0000.88
2022-02-02 12:57:00,,0824.8,4.98,0.00,22.1,21.5,00.0,31.2,23.6,06.3,0000.0,0005.42,0001.36,0000.89
2022-02-02 12:58:00,,0824.9,5.01,0.00,22.0,21.3,00.0,31.2,23.6,06.3,0000.0,0005.09,0001.38,0000.89
2022-02-02 12:59:00,,0824.9,4.99,0.00,22.0,21.2,00.0,31.1,23.5,06.3,0000.0,0004.11,0001.38,0000.90
